HULIANWANG DIGUI-158

导读 | 豆包AI

HULIANWANG DIGUI-158(NORAD编号68132)属于中国卫星互联网低轨星座组网卫星,依托长征系列运载火箭执行发射任务,是中国低轨卫星互联网建设的组成单元。该卫星主要为构建覆盖全球的卫星通信网络提供支撑,可服务于天地一体化信息系统建设,满足不同场景下的宽带互联通信需求,助力完善中国自主可控的卫星互联网基础设施,推动商业航天与空间通信领域发展。

基本信息
目录编号:
68132
目录名称:
HULIANWANG DIGUI-158
国际标识:
2026-047D
轨道中心:
EARTH
卫星名称:
HULIANWANG DIGUI-158
卫星全名:
HULIANWANG DIGUI-158
卫星状态:
在轨 (已飞行80 天)
发射日期:
2026-03-12 UTC
国别 :
中国 (CN)
星等 :
--
轨道信息
数据来源 国际轨道数据 AOE轨道数据
星历时间 2026-05-30T15:28:38+0800
18小时前
查看轨道信息
2026-05-30T17:00:00+0800
17小时前
查看轨道信息
半长轴 7527.426km 7527.441km
偏心率 0.0000354 0.0001023
轨道倾角 50.003° 50.004°
近地点辐角 32.558° 6.366°
升交点赤经 120.293° 120.066°
平近点角 327.531° 297.560°
近地点 1149.022km 1148.533km
远地点 1149.556km 1150.075km
周期 108.325分钟 108.325分钟
每日圈数 13.293309 13.293269
详细信息
使用方式:
暂无
2D轨道图
3D轨道图
轨道高度分析图
轨道倾角分析图
轨道综合分析图
查看轨道综合分析图